Vorticity
9 9 10 11 11 11 15 18 21 19 15 17 25 37 46 46 42 39 34 27 16 6 1 1 2 -5 -8 2 15 23 17 6 8 12 -2 -15 -9 10 25 28 22 15 7 3 10 12 10 16 13 -7 -17 -15 -6 9 14 8 5 2 -0 0 3 5 5
10 10 11 13 12 9 9 11 17 20 19 19 22 29 38 42 42 41 40 37 29 19 10 3 2 1 -4 -6 -2 10 20 17 10 10 14 5 -12 -15 2 20 22 18 16 9 3 2 2 4 8 2 -8 -10 0 14 17 11 3 -1 -2 -1 1 5 6
9 10 11 12 13 12 10 8 8 11 12 14 18 23 31 39 42 39 37 39 38 31 23 15 7 2 1 -1 -3 -3 5 16 18 12 11 16 14 6 3 8 8 5 11 9 -1 0 7 7 5 -1 -7 -4 4 12 15 9 1 -2 1 2 2 6 7
7 9 11 12 12 14 15 12 8 7 7 7 9 13 21 31 40 42 38 36 36 36 31 25 17 10 5 2 1 -1 -3 1 10 15 13 12 16 20 18 18 14 5 6 11 9 10 7 -1 -4 -6 -4 2 8 14 16 5 -3 0 6 6 5 7 8
7 8 9 10 11 12 15 14 12 11 10 8 7 7 11 18 29 38 42 40 37 36 36 33 27 20 14 10 5 1 0 -0 1 5 10 11 13 17 17 19 18 6 -4 -8 -8 -6 -9 -11 -5 1 6 9 9 14 12 -2 -3 5 6 6 7 8 10
7 8 8 8 9 10 12 13 13 13 12 11 11 9 7 9 16 25 32 38 38 37 37 37 36 30 23 20 16 9 2 0 2 4 4 3 3 4 3 5 9 5 -4 -11 -10 -2 6 11 15 13 13 12 11 15 11 1 2 4 -2 -1 4 9 13
8 8 9 8 8 8 8 9 10 11 11 11 12 13 12 8 9 14 21 27 32 35 36 36 37 36 31 26 24 23 16 6 1 2 6 7 5 1 -5 -8 -4 3 8 12 15 19 20 22 23 21 20 20 17 11 -2 -11 -11 -8 -6 -0 6 13 17
13 9 8 9 9 8 7 8 8 9 10 10 9 10 12 12 9 8 12 17 21 26 31 32 32 32 33 30 24 23 25 23 15 6 3 5 7 10 9 4 -0 -1 -0 1 0 -2 -4 -3 -1 -0 -1 -2 -6 -14 -20 -16 -6 4 10 11 10 14 14
21 15 11 10 11 11 9 7 7 8 9 10 9 8 8 10 11 10 8 10 14 18 22 25 28 28 30 32 30 25 23 25 25 21 15 10 5 5 8 11 12 12 11 9 5 1 -1 -2 -1 -2 -4 -7 -10 -10 -4 7 16 19 16 11 9 11 9
21 21 16 12 11 13 13 11 10 9 8 8 8 9 8 7 8 9 8 7 8 11 14 17 22 26 27 27 29 28 27 25 24 23 22 21 17 12 7 4 4 5 9 13 18 21 22 21 19 18 17 17 16 15 15 17 20 21 17 11 8 8 7
17 21 21 17 13 14 16 16 14 10 8 8 7 8 9 9 8 8 8 8 7 7 9 11 14 17 21 24 25 25 26 26 25 25 23 21 21 21 20 17 13 8 5 2 3 8 14 19 23 24 23 22 20 19 18 20 21 20 16 11 7 6 7
17 19 20 20 17 15 14 14 14 11 9 8 8 7 7 8 9 9 7 7 8 6 5 5 6 8 12 17 21 23 25 25 26 28 28 27 24 20 19 19 19 20 17 13 8 3 -1 1 7 15 19 19 18 17 19 21 20 18 16 13 10 9 10
18 18 19 21 19 15 14 12 11 11 10 9 10 10 9 7 7 8 8 8 8 8 7 5 4 5 6 8 10 14 19 24 26 28 29 31 32 30 26 21 17 16 16 16 16 13 7 0 -5 -4 1 9 15 18 18 17 15 15 14 12 11 10 9
20 20 18 19 19 17 15 13 11 11 10 10 11 10 9 9 8 8 9 10 9 9 9 8 7 6 6 5 5 4 5 8 11 15 18 22 26 31 34 34 30 25 20 16 13 12 15 17 13 7 0 -1 2 5 8 11 12 13 12 10 10 11 11
24 24 23 23 23 22 21 19 18 17 16 16 17 17 17 16 15 14 12 11 10 10 9 9 9 9 8 8 7 7 7 6 5 5 6 7 11 15 20 27 33 36 36 34 30 25 21 19 20 20 17 12 6 2 1 2 3 5 8 10 9 9 11
15 15 15 15 15 17 19 19 18 18 17 16 14 14 15 15 14 14 13 12 10 9 8 8 8 7 7 7 7 6 6 5 5 5 4 4 4 4 6 8 13 18 24 31 36 39 37 30 22 18 19 19 17 14 10 6 5 4 5 9 13 12 12
13 13 15 15 14 14 15 15 16 16 16 17 16 14 14 15 15 15 15 15 15 14 14 14 14 14 14 13 13 13 13 12 11 9 8 7 6 5 6 6 6 7 9 12 17 24 32 36 33 26 19 14 14 17 19 16 13 11 9 8 9 9 7
21 22 22 20 18 17 17 18 19 19 19 19 19 19 18 18 20 23 25 26 27 27 27 26 25 24 23 23 23 22 22 20 17 15 14 14 13 11 10 10 9 9 8 7 9 11 15 23 30 33 31 22 12 10 16 20 16 13 12 11 7 5 6
15 15 15 15 15 14 13 13 13 13 15 16 19 24 29 33 36 38 38 37 36 35 35 35 34 33 33 34 34 32 31 29 28 28 28 27 25 23 21 19 17 15 13 10 9 9 10 12 16 23 30 31 21 8 6 17 21 14 10 12 11 8 8
9 8 8 9 10 10 11 15 18 21 25 31 34 35 36 35 32 28 25 23 21 21 22 22 22 23 25 27 28 27 28 29 30 33 34 35 36 35 34 32 28 23 19 15 10 9 9 9 12 17 21 27 29 20 9 12 20 18 14 15 15 11 10
8 8 11 16 22 27 29 28 27 27 27 25 21 18 16 14 12 11 11 8 6 7 9 10 10 10 10 13 16 15 15 16 18 21 22 22 23 26 28 31 33 30 25 21 16 12 11 10 10 15 19 20 24 26 21 16 17 18 17 14 13 13 13
11 16 22 28 30 27 23 19 15 14 13 11 10 12 13 14 16 17 18 19 21 20 18 16 16 15 13 14 17 16 15 13 12 14 16 15 13 13 14 17 25 31 30 28 24 19 16 15 11 13 21 23 20 21 22 20 16 15 13 10 11 17 20
22 24 22 17 10 5 11 18 15 10 11 13 12 10 8 9 11 11 11 16 20 19 16 15 16 17 18 17 17 17 18 17 14 15 17 13 12 20 24 20 19 26 30 30 28 23 20 20 17 15 19 23 22 20 21 20 18 15 12 10 13 19 18
22 16 10 3 -4 0 15 23 16 10 15 16 10 5 6 9 12 12 12 12 11 11 12 13 16 19 21 20 23 27 27 26 27 27 24 21 22 30 38 33 24 23 27 25 24 24 24 23 22 20 20 23 23 19 17 16 15 11 8 9 13 16 14
8 4 4 4 4 10 19 21 15 14 16 13 7 7 11 13 14 14 13 13 13 13 12 12 14 15 16 17 22 23 18 16 15 11 17 36 44 35 28 30 27 22 22 21 21 24 27 25 23 20 20 24 23 17 12 10 9 8 8 11 16 16 15
4 8 14 18 18 19 20 17 12 9 9 7 5 7 11 14 14 14 15 18 20 18 14 12 12 12 14 16 17 15 15 21 24 17 18 40 56 43 26 24 25 22 23 27 28 28 28 26 24 23 24 26 21 13 9 7 7 9 10 12 16 16 14
13 19 22 19 13 10 10 9 5 4 6 9 9 9 11 13 12 12 15 21 24 24 21 19 17 17 20 20 17 14 15 17 23 22 13 15 32 44 43 39 37 35 34 34 32 29 27 24 23 24 25 22 15 10 10 8 7 9 9 8 9 9 8
16 17 14 10 6 5 6 6 8 10 11 13 13 12 12 12 11 10 11 13 17 21 23 23 25 27 28 25 21 22 22 19 21 27 22 12 18 31 34 34 35 34 32 30 27 26 25 25 25 26 25 21 16 14 13 8 5 7 8 7 6 6 7
14 12 11 11 11 14 14 12 13 15 15 16 16 14 13 14 12 8 7 8 11 15 17 18 21 24 25 24 22 21 21 20 22 25 24 22 23 22 17 15 15 15 16 16 15 15 16 17 18 18 17 15 12 10 10 10 10 11 11 9 8 9 9
11 13 16 16 15 19 21 20 19 18 18 18 17 14 14 15 11 7 8 9 8 9 11 12 14 16 16 20 22 19 17 19 21 21 18 17 18 17 16 15 12 9 8 6 4 4 6 7 7 7 7 7 8 8 11 13 13 11 9 9 10 10 8
9 12 15 14 14 18 21 21 23 24 21 19 17 14 13 11 9 7 8 8 7 8 9 8 10 13 13 14 16 16 14 15 16 18 18 17 15 14 15 16 16 13 11 10 11 12 12 12 12 12 12 13 13 12 11 10 8 7 8 8 8 7 6
9 11 13 11 14 19 19 14 15 18 17 14 13 13 9 8 8 7 7 8 10 11 10 8 7 10 12 14 15 15 15 15 13 12 12 14 16 16 16 16 17 17 16 17 16 15 15 15 14 13 13 12 10 8 7 7 6 7 7 7 6 7 8
9 7 8 8 12 18 18 11 7 10 12 10 10 11 9 7 6 5 7 11 12 11 9 8 7 7 8 10 12 12 12 15 15 13 11 10 9 10 11 10 11 11 11 11 11 9 9 9 7 6 6 6 6 7 7 7 8 8 8 8 9 9 9
17 13 9 7 6 9 10 10 8 8 8 7 7 10 12 11 9 9 9 10 10 12 12 9 8 8 8 9 12 12 11 13 14 13 13 13 11 9 9 8 8 8 7 7 7 6 6 6 6 6 7 7 8 8 8 8 9 9 9 10 10 9 9
17 17 16 13 10 8 5 5 6 8 8 9 10 12 12 11 11 11 11 9 8 11 11 8 7 8 7 9 12 11 9 10 11 11 12 12 12 12 11 10 10 9 9 8 8 8 8 8 8 8 8 8 9 9 9 9 10 10 10 11 11 12 14
11 14 15 15 15 15 12 7 7 7 7 8 11 12 13 13 13 12 12 12 10 9 9 8 8 8 9 10 10 10 9 9 10 11 11 11 11 11 11 11 11 11 10 10 10 10 10 10 10 10 11 11 11 12 12 13 13 14 15 16 16 17 17
Height
5291 5291 5292 5293 5294 5295 5297 5298 5299 5300 5301 5303 5305 5308 5312 5316 5320 5326 5334 5340 5347 5354 5361 5367 5372 5378 5384 5389 5394 5399 5404 5409 5414 5418 5423 5427 5431 5435 5439 5443 5447 5453 5459 5465 5470 5475 5479 5482 5484 5487 5490 5494 5498 5501 5504 5507 5508 5509 5511 5514 5517 5520 5522
5286 5286 5287 5288 5289 5291 5292 5293 5294 5295 5296 5298 5300 5301 5304 5307 5311 5316 5323 5329 5335 5342 5348 5355 5361 5368 5374 5378 5382 5388 5393 5398 5403 5407 5411 5417 5421 5426 5431 5434 5438 5442 5447 5454 5460 5464 5468 5472 5475 5479 5483 5485 5489 5492 5494 5497 5499 5501 5503 5506 5509 5511 5514
5282 5282 5283 5283 5284 5286 5287 5289 5290 5291 5292 5293 5295 5296 5298 5300 5303 5308 5313 5318 5324 5331 5336 5342 5349 5357 5363 5367 5371 5377 5382 5387 5392 5396 5400 5406 5411 5417 5421 5425 5429 5432 5436 5442 5448 5453 5458 5462 5466 5470 5474 5477 5479 5481 5484 5488 5491 5492 5495 5498 5501 5504 5506
5277 5278 5278 5279 5280 5281 5282 5284 5285 5286 5288 5289 5290 5292 5294 5295 5297 5301 5305 5310 5315 5320 5325 5331 5338 5346 5352 5356 5361 5367 5372 5376 5381 5386 5391 5396 5401 5406 5411 5415 5418 5421 5425 5430 5437 5442 5448 5452 5456 5460 5464 5466 5469 5471 5475 5479 5481 5484 5487 5490 5493 5495 5497
5273 5274 5274 5275 5276 5277 5278 5279 5280 5282 5283 5285 5286 5288 5289 5291 5293 5295 5298 5302 5306 5311 5315 5321 5328 5335 5341 5344 5350 5357 5362 5366 5371 5376 5381 5386 5391 5396 5400 5403 5406 5410 5414 5419 5425 5431 5437 5441 5445 5449 5453 5457 5460 5463 5467 5470 5472 5475 5478 5481 5484 5487 5489
5269 5270 5270 5271 5272 5273 5274 5275 5276 5277 5279 5281 5282 5284 5285 5287 5288 5290 5293 5295 5299 5303 5307 5313 5319 5325 5329 5334 5340 5347 5352 5356 5361 5365 5370 5375 5380 5385 5388 5391 5394 5398 5402 5408 5414 5419 5425 5430 5435 5439 5443 5447 5450 5453 5457 5461 5463 5466 5470 5473 5476 5478 5480
5265 5265 5266 5267 5268 5269 5270 5271 5271 5273 5275 5276 5278 5280 5281 5283 5284 5286 5288 5290 5293 5296 5300 5304 5310 5314 5319 5324 5330 5336 5341 5345 5350 5354 5359 5364 5369 5372 5376 5380 5384 5388 5392 5397 5403 5408 5414 5420 5424 5427 5432 5437 5440 5443 5447 5452 5455 5459 5462 5465 5467 5468 5469
5260 5261 5262 5263 5264 5265 5266 5266 5267 5269 5271 5272 5274 5275 5277 5279 5280 5282 5284 5286 5288 5291 5294 5297 5301 5305 5310 5315 5320 5325 5329 5334 5338 5343 5348 5353 5358 5361 5365 5370 5374 5378 5382 5387 5392 5398 5404 5408 5412 5416 5422 5426 5430 5435 5440 5445 5448 5451 5453 5454 5456 5458 5460
5255 5256 5257 5258 5259 5260 5261 5262 5263 5265 5267 5268 5269 5271 5272 5274 5276 5278 5279 5281 5283 5286 5288 5291 5295 5298 5302 5306 5311 5315 5319 5323 5327 5332 5337 5343 5347 5351 5355 5360 5364 5368 5372 5376 5381 5387 5393 5397 5401 5406 5411 5416 5422 5428 5433 5435 5437 5440 5442 5443 5445 5448 5451
5250 5251 5252 5253 5254 5256 5257 5258 5260 5261 5262 5263 5265 5266 5268 5270 5272 5274 5275 5277 5279 5281 5283 5286 5289 5292 5295 5298 5302 5305 5309 5313 5318 5322 5328 5332 5336 5340 5345 5349 5353 5358 5362 5367 5371 5377 5382 5386 5391 5396 5401 5407 5413 5417 5420 5423 5426 5428 5431 5432 5435 5439 5442
5245 5246 5247 5248 5249 5251 5253 5254 5255 5257 5258 5259 5260 5261 5263 5265 5267 5269 5271 5273 5275 5277 5279 5281 5283 5286 5288 5291 5294 5297 5301 5305 5309 5314 5318 5322 5325 5330 5334 5338 5342 5347 5352 5356 5362 5367 5371 5375 5381 5386 5390 5395 5400 5404 5409 5413 5415 5417 5420 5423 5426 5430 5433
5240 5241 5242 5243 5244 5246 5248 5249 5251 5252 5253 5254 5255 5257 5259 5261 5263 5265 5267 5268 5270 5272 5274 5276 5278 5280 5282 5285 5288 5291 5293 5297 5301 5304 5308 5311 5314 5318 5323 5327 5331 5336 5340 5345 5351 5355 5360 5366 5372 5375 5378 5384 5390 5394 5399 5401 5403 5406 5409 5413 5417 5421 5424
5235 5236 5237 5238 5240 5241 5243 5244 5246 5247 5248 5249 5251 5252 5254 5256 5258 5259 5261 5263 5265 5267 5269 5271 5273 5275 5277 5280 5282 5284 5287 5290 5293 5295 5298 5301 5304 5308 5312 5317 5321 5325 5329 5333 5338 5343 5349 5356 5361 5364 5369 5375 5379 5383 5387 5389 5392 5396 5399 5403 5408 5411 5413
5231 5232 5233 5234 5235 5236 5238 5239 5241 5242 5244 5245 5246 5247 5249 5250 5253 5255 5256 5258 5260 5262 5264 5266 5267 5269 5272 5274 5276 5278 5280 5283 5285 5287 5290 5292 5296 5299 5303 5307 5311 5314 5318 5322 5326 5331 5338 5344 5348 5353 5359 5364 5367 5372 5376 5378 5381 5385 5389 5393 5398 5400 5402
5227 5228 5229 5230 5231 5232 5233 5234 5236 5237 5239 5240 5242 5243 5244 5246 5248 5250 5251 5253 5254 5256 5257 5259 5261 5263 5265 5267 5269 5271 5272 5275 5277 5279 5281 5284 5287 5291 5294 5297 5301 5305 5308 5311 5315 5321 5326 5330 5334 5340 5346 5350 5355 5360 5364 5367 5371 5375 5379 5383 5387 5390 5393
5224 5225 5225 5226 5227 5228 5229 5230 5232 5233 5234 5235 5236 5237 5239 5240 5242 5244 5245 5247 5248 5249 5251 5252 5254 5256 5258 5260 5262 5264 5265 5266 5267 5269 5272 5276 5279 5282 5285 5289 5293 5296 5298 5301 5305 5310 5314 5318 5322 5327 5333 5338 5342 5347 5352 5357 5361 5366 5370 5375 5378 5381 5383
5222 5223 5223 5224 5224 5225 5225 5226 5227 5228 5229 5230 5231 5232 5234 5235 5236 5238 5239 5241 5242 5243 5244 5246 5247 5249 5250 5252 5255 5256 5256 5257 5259 5261 5264 5268 5271 5274 5277 5281 5284 5287 5289 5293 5296 5300 5304 5307 5311 5316 5321 5326 5331 5336 5341 5346 5350 5356 5361 5365 5368 5371 5373
5220 5221 5221 5221 5222 5222 5222 5223 5223 5224 5225 5225 5226 5227 5228 5229 5231 5232 5233 5234 5235 5236 5237 5238 5239 5241 5242 5244 5246 5246 5247 5248 5249 5252 5255 5259 5262 5265 5269 5272 5275 5277 5280 5284 5287 5291 5295 5299 5302 5307 5312 5318 5322 5327 5331 5335 5340 5346 5351 5354 5358 5362 5364
5219 5219 5220 5220 5220 5220 5220 5220 5220 5221 5221 5221 5222 5222 5223 5224 5225 5226 5227 5228 5229 5229 5230 5231 5232 5233 5234 5236 5237 5238 5238 5239 5241 5243 5247 5249 5251 5255 5259 5263 5265 5267 5270 5274 5278 5283 5287 5291 5295 5299 5304 5309 5313 5318 5323 5327 5332 5337 5341 5345 5349 5353 5356
5218 5218 5218 5218 5218 5218 5218 5218 5218 5218 5218 5218 5218 5219 5219 5220 5221 5222 5223 5224 5224 5224 5225 5226 5226 5227 5228 5229 5230 5231 5232 5233 5234 5236 5238 5239 5241 5245 5250 5252 5254 5256 5260 5264 5270 5274 5279 5283 5287 5291 5296 5300 5305 5311 5315 5320 5325 5330 5334 5338 5341 5345 5350
5217 5216 5216 5216 5215 5215 5215 5215 5215 5216 5216 5216 5216 5217 5218 5219 5220 5220 5221 5221 5221 5222 5222 5222 5223 5223 5224 5224 5225 5226 5227 5228 5229 5231 5232 5233 5235 5237 5240 5241 5244 5247 5250 5255 5261 5266 5270 5275 5279 5284 5289 5293 5298 5302 5307 5312 5317 5322 5328 5332 5335 5339 5343
5215 5215 5214 5214 5214 5214 5214 5214 5214 5214 5215 5215 5215 5216 5217 5218 5218 5219 5219 5219 5219 5219 5219 5220 5220 5220 5220 5221 5222 5222 5223 5224 5224 5226 5227 5228 5228 5230 5231 5233 5236 5238 5241 5247 5254 5259 5263 5267 5272 5277 5282 5286 5290 5294 5299 5304 5310 5316 5322 5326 5329 5333 5336
5214 5214 5214 5214 5214 5214 5214 5214 5214 5214 5214 5215 5215 5216 5216 5217 5217 5217 5217 5217 5217 5217 5217 5217 5217 5217 5217 5218 5218 5218 5219 5219 5219 5220 5222 5222 5221 5222 5224 5226 5228 5231 5235 5241 5246 5251 5255 5260 5265 5271 5275 5279 5283 5287 5293 5299 5305 5311 5316 5320 5323 5327 5329
5214 5214 5214 5214 5214 5214 5214 5214 5214 5214 5214 5215 5215 5215 5216 5216 5216 5216 5216 5216 5215 5215 5215 5215 5215 5215 5214 5214 5214 5215 5215 5215 5215 5216 5216 5214 5214 5215 5217 5220 5223 5227 5231 5235 5240 5244 5249 5254 5260 5265 5269 5273 5277 5283 5289 5295 5301 5306 5310 5314 5317 5321 5323
5215 5215 5214 5214 5214 5214 5214 5214 5214 5214 5215 5215 5215 5215 5215 5215 5215 5214 5214 5214 5214 5214 5213 5213 5213 5213 5212 5212 5212 5212 5211 5211 5211 5211 5210 5209 5209 5211 5213 5215 5219 5223 5227 5231 5235 5240 5244 5249 5254 5259 5263 5268 5273 5280 5287 5292 5297 5301 5305 5309 5312 5315 5317
5216 5215 5215 5215 5214 5214 5214 5214 5214 5214 5214 5215 5215 5215 5214 5214 5214 5213 5213 5213 5212 5212 5212 5212 5211 5211 5210 5210 5210 5209 5209 5208 5208 5208 5208 5207 5207 5208 5210 5212 5215 5219 5223 5227 5232 5236 5240 5245 5250 5255 5260 5265 5271 5278 5283 5288 5292 5297 5300 5304 5306 5309 5311
5216 5216 5215 5215 5215 5214 5214 5214 5214 5214 5214 5214 5214 5214 5214 5214 5213 5213 5213 5212 5211 5211 5211 5210 5210 5209 5209 5208 5208 5208 5207 5207 5206 5206 5207 5207 5207 5206 5208 5210 5213 5216 5220 5224 5229 5233 5238 5243 5248 5253 5258 5263 5269 5275 5280 5284 5289 5292 5295 5298 5301 5303 5305
5216 5216 5216 5215 5215 5215 5215 5214 5214 5214 5214 5214 5213 5213 5213 5213 5213 5213 5213 5212 5211 5211 5211 5210 5210 5209 5208 5208 5207 5207 5207 5206 5206 5206 5206 5207 5207 5208 5209 5211 5213 5216 5220 5224 5228 5232 5237 5242 5247 5252 5257 5262 5268 5273 5277 5281 5285 5288 5290 5293 5295 5297 5299
5216 5216 5216 5215 5215 5214 5214 5214 5213 5213 5213 5213 5213 5213 5213 5213 5213 5213 5213 5212 5212 5212 5212 5211 5210 5209 5209 5208 5208 5207 5207 5206 5206 5206 5206 5207 5208 5210 5211 5213 5216 5219 5222 5225 5229 5233 5238 5242 5247 5252 5256 5261 5266 5270 5274 5277 5280 5283 5286 5288 5290 5292 5294
5217 5216 5216 5215 5214 5214 5213 5213 5213 5213 5213 5213 5213 5213 5213 5214 5214 5214 5214 5213 5213 5213 5213 5212 5211 5210 5209 5209 5209 5208 5208 5207 5207 5207 5207 5209 5210 5212 5214 5216 5218 5221 5224 5227 5231 5235 5239 5243 5247 5251 5256 5259 5263 5267 5270 5274 5276 5279 5281 5283 5285 5287 5288
5217 5217 5216 5215 5215 5214 5214 5213 5213 5213 5213 5213 5214 5214 5214 5215 5215 5215 5215 5215 5214 5214 5214 5213 5212 5211 5210 5210 5210 5209 5209 5209 5209 5209 5209 5211 5212 5214 5216 5218 5221 5223 5227 5230 5234 5237 5241 5244 5248 5251 5255 5258 5262 5265 5268 5270 5273 5275 5277 5278 5280 5281 5282
5218 5218 5217 5216 5216 5215 5215 5215 5215 5215 5215 5215 5215 5215 5215 5215 5215 5216 5216 5215 5215 5215 5214 5214 5213 5213 5212 5212 5211 5211 5211 5211 5211 5211 5212 5213 5214 5216 5218 5220 5223 5226 5229 5232 5235 5238 5241 5244 5247 5251 5254 5257 5260 5262 5265 5267 5269 5270 5272 5273 5274 5275 5276
5220 5219 5219 5218 5217 5216 5216 5216 5216 5216 5216 5216 5216 5216 5216 5216 5216 5216 5216 5216 5216 5216 5215 5215 5214 5214 5214 5213 5213 5213 5213 5213 5214 5214 5215 5216 5217 5219 5221 5223 5225 5228 5230 5233 5236 5238 5241 5244 5247 5250 5253 5255 5257 5259 5261 5263 5264 5266 5267 5268 5269 5270 5270
5221 5220 5220 5219 5219 5218 5218 5217 5218 5218 5217 5217 5217 5217 5217 5217 5217 5217 5217 5217 5217 5216 5216 5215 5215 5215 5215 5215 5215 5215 5215 5215 5216 5217 5218 5219 5220 5222 5223 5225 5227 5229 5232 5234 5236 5239 5241 5244 5246 5248 5251 5252 5254 5256 5257 5259 5260 5261 5262 5263 5264 5264 5264
5222 5222 5221 5220 5220 5219 5219 5219 5218 5218 5218 5218 5218 5218 5218 5218 5217 5217 5217 5217 5217 5217 5217 5217 5217 5217 5217 5217 5217 5217 5217 5217 5218 5219 5220 5221 5222 5224 5225 5227 5229 5231 5232 5234 5237 5239 5241 5243 5245 5247 5248 5250 5251 5253 5254 5255 5256 5256 5257 5258 5258 5258 5258
5224 5223 5222 5221 5221 5220 5220 5219 5219 5219 5219 5218 5218 5218 5218 5218 5218 5217 5217 5218 5218 5218 5218 5218 5218 5218 5218 5218 5219 5219 5219 5219 5220 5220 5221 5222 5223 5225 5226 5228 5229 5231 5233 5235 5236 5238 5240 5241 5243 5244 5246 5247 5248 5249 5250 5251 5251 5252 5252 5252 5252 5252 5252